This is the latest recevied weather packets stored in our database for station/object N3AVN. If no packets are shown the sender has not sent any weather packets the latest 10 day(s).
| Time | Temp. | Humidity | Pressure | Rain* | Wind** | Luminosity | Snow |
|---|---|---|---|---|---|---|---|
| 1777638244 | 10° C | 69% | 1010.4 hPa | 0 mm | - | 311 W/m² | - |
| 1777637940 | 9.44° C | 70% | 1010.7 hPa | 0 mm | - | 269 W/m² | - |
| 1777637636 | 9.44° C | 73% | 1010.5 hPa | 0 mm | - | 235 W/m² | - |
| 1777637334 | 8.89° C | 71% | 1010.4 hPa | 0 mm | - | 174 W/m² | - |
| 1777637031 | 9.44° C | 71% | 1010.6 hPa | 0 mm | - | 220 W/m² | - |
| 1777636726 | 8.89° C | 74% | 1010.3 hPa | 0 mm | - | 250 W/m² | - |
| 1777636423 | 8.33° C | 76% | 1010.4 hPa | 0 mm | - | 201 W/m² | - |
| 1777636118 | 8.33° C | 76% | 1010.1 hPa | 0 mm | - | 46 W/m² | - |
| 1777635814 | 8.33° C | 77% | 1010.4 hPa | 0 mm | - | 108 W/m² | - |
| 1777635510 | 8.33° C | 78% | 1010.4 hPa | 0 mm | - | 56 W/m² | - |
| 1777635207 | 7.78° C | 80% | 1010.3 hPa | 0 mm | - | 75 W/m² | - |
| 1777634904 | 7.22° C | 81% | 1010.2 hPa | 0 mm | - | 45 W/m² | - |
| 1777634601 | 7.22° C | 81% | 1010.2 hPa | 0 mm | - | 37 W/m² | - |
| 1777634298 | 6.67° C | 82% | 1010.1 hPa | 0 mm | - | 31 W/m² | - |
| 1777633994 | 6.67° C | 82% | 1010.1 hPa | 0 mm | - | 28 W/m² | - |
| 1777633691 | 6.67° C | 81% | 1010.1 hPa | 0 mm | - | 26 W/m² | - |
| 1777633390 | 6.67° C | 82% | 1010.1 hPa | 0 mm | - | 26 W/m² | - |
| 1777633087 | 6.67° C | 83% | 1010.1 hPa | 0 mm | - | 24 W/m² | - |
| 1777632783 | 6.11° C | 83% | 1009.7 hPa | 0 mm | - | 21 W/m² | - |
| 1777632479 | 6.11° C | 83% | 1009.8 hPa | 0 mm | - | 20 W/m² | - |
| 1777632177 | 6.11° C | 84% | 1010 hPa | 0 mm | - | 21 W/m² | - |
| 1777631873 | 6.11° C | 84% | 1009.7 hPa | 0 mm | - | 18 W/m² | - |
| 1777631572 | 6.11° C | 84% | 1009.5 hPa | 0 mm | - | 17 W/m² | - |
| 1777631268 | 6.11° C | 85% | 1009.6 hPa | 0 mm | - | 15 W/m² | - |
| 1777630966 | 6.11° C | 85% | 1009.5 hPa | 0 mm | - | 15 W/m² | - |
* Rain latest hour (hover to see other rain measurements)
** Current wind speed in m/s (hover to see current wind gust speed)